contact:dominique.lefevre@mio.osupytheas.fr, maurice.libes@osupytheas.fr, didier.mallarino@osupytheas.fr
Project:EMSO http://www.emso-fr.org/EMSO-France
Depth: 2436.0 m
Title:EMSO Ligure Ouest : Data MII capteur MICROCAT
DateTime_Computer,Latitude,Longitude,Temperature,Conductivity,Pressure,DateTime_Instrument
DateTime_Computer,Latitude,Longitude,degC,S m-1,dbar,DateTime_Instrument
2021-07-23T00:01:16Z,42.805,6.029,13.2993,4.60003,2470.413,2021-7-23T02:02:32Z
2021-07-23T00:04:19Z,42.805,6.029,13.2993,4.60004,2470.413,2021-7-23T02:05:35Z
2021-07-23T00:07:22Z,42.805,6.029,13.2998,4.60003,2470.45,2021-7-23T02:08:39Z
2021-07-23T00:10:25Z,42.805,6.029,13.2997,4.60006,2470.413,2021-7-23T02:11:42Z
2021-07-23T00:13:28Z,42.805,6.029,13.2994,4.60005,2470.404,2021-7-23T02:14:45Z
2021-07-23T00:16:31Z,42.805,6.029,13.2993,4.60007,2470.38,2021-7-23T02:17:48Z
2021-07-23T00:19:34Z,42.805,6.029,13.2995,4.60003,2470.413,2021-7-23T02:20:51Z
2021-07-23T00:22:38Z,42.805,6.029,13.2999,4.60005,2470.427,2021-7-23T02:23:54Z
2021-07-23T00:25:41Z,42.805,6.029,13.3000,4.60005,2470.427,2021-7-23T02:26:57Z
2021-07-23T00:28:44Z,42.805,6.029,13.2998,4.60006,2470.427,2021-7-23T02:30:00Z
2021-07-23T00:31:47Z,42.805,6.029,13.2996,4.60007,2470.413,2021-7-23T02:33:04Z
2021-07-23T00:34:50Z,42.805,6.029,13.2998,4.60006,2470.413,2021-7-23T02:36:07Z
2021-07-23T00:37:53Z,42.805,6.029,13.2994,4.60021,2470.404,2021-7-23T02:39:10Z
2021-07-23T00:40:56Z,42.805,6.029,13.2996,4.60004,2470.413,2021-7-23T02:42:13Z
2021-07-23T00:43:59Z,42.805,6.029,13.2998,4.60003,2470.45,2021-7-23T02:45:16Z
2021-07-23T00:47:03Z,42.805,6.029,13.2998,4.60005,2470.404,2021-7-23T02:48:19Z
2021-07-23T00:50:06Z,42.805,6.029,13.2994,4.60007,2470.427,2021-7-23T02:51:22Z
2021-07-23T00:53:09Z,42.805,6.029,13.2993,4.60006,2470.39,2021-7-23T02:54:25Z
2021-07-23T00:56:12Z,42.805,6.029,13.2996,4.60009,2470.404,2021-7-23T02:57:29Z
2021-07-23T00:59:15Z,42.805,6.029,13.2999,4.60010,2470.404,2021-7-23T03:00:32Z
2021-07-23T01:02:18Z,42.805,6.029,13.2999,4.60007,2470.404,2021-7-23T03:03:35Z
2021-07-23T01:05:21Z,42.805,6.029,13.2994,4.60009,2470.366,2021-7-23T03:06:38Z
2021-07-23T01:08:24Z,42.805,6.029,13.2995,4.60006,2470.366,2021-7-23T03:09:41Z
2021-07-23T01:11:28Z,42.805,6.029,13.2994,4.60009,2470.404,2021-7-23T03:12:44Z
2021-07-23T01:14:31Z,42.805,6.029,13.2994,4.60006,2470.413,2021-7-23T03:15:47Z
2021-07-23T01:17:34Z,42.805,6.029,13.2998,4.60009,2470.413,2021-7-23T03:18:50Z
2021-07-23T01:20:37Z,42.805,6.029,13.2990,4.60009,2470.404,2021-7-23T03:21:54Z
2021-07-23T01:23:40Z,42.805,6.029,13.2993,4.60008,2470.39,2021-7-23T03:24:57Z
2021-07-23T01:26:43Z,42.805,6.029,13.2996,4.60004,2470.404,2021-7-23T03:28:00Z
2021-07-23T01:29:46Z,42.805,6.029,13.2993,4.60004,2470.413,2021-7-23T03:31:03Z
2021-07-23T01:32:49Z,42.805,6.029,13.2996,4.60004,2470.366,2021-7-23T03:34:06Z
2021-07-23T01:35:53Z,42.805,6.029,13.2996,4.60004,2470.39,2021-7-23T03:37:09Z
2021-07-23T01:38:56Z,42.805,6.029,13.2994,4.60002,2470.39,2021-7-23T03:40:12Z
2021-07-23T01:41:59Z,42.805,6.029,13.2988,4.60003,2470.404,2021-7-23T03:43:15Z
2021-07-23T01:45:02Z,42.805,6.029,13.2993,4.60003,2470.413,2021-7-23T03:46:18Z
2021-07-23T01:48:05Z,42.805,6.029,13.2992,4.60003,2470.404,2021-7-23T03:49:22Z
2021-07-23T01:51:08Z,42.805,6.029,13.2991,4.60004,2470.404,2021-7-23T03:52:25Z
2021-07-23T01:54:11Z,42.805,6.029,13.2993,4.60003,2470.404,2021-7-23T03:55:28Z
2021-07-23T01:57:14Z,42.805,6.029,13.2996,4.60003,2470.38,2021-7-23T03:58:31Z
2021-07-23T02:00:18Z,42.805,6.029,13.2997,4.60004,2470.427,2021-7-23T04:01:34Z
2021-07-23T02:03:21Z,42.805,6.029,13.2993,4.60005,2470.39,2021-7-23T04:04:37Z
2021-07-23T02:06:24Z,42.805,6.029,13.2998,4.60004,2470.413,2021-7-23T04:07:40Z
2021-07-23T02:09:27Z,42.805,6.029,13.2994,4.60006,2470.404,2021-7-23T04:10:43Z
2021-07-23T02:12:30Z,42.805,6.029,13.2993,4.60011,2470.39,2021-7-23T04:13:47Z
2021-07-23T02:15:33Z,42.805,6.029,13.2995,4.60005,2470.39,2021-7-23T04:16:50Z
2021-07-23T02:18:36Z,42.805,6.029,13.2995,4.60003,2470.427,2021-7-23T04:19:53Z
2021-07-23T02:21:39Z,42.805,6.029,13.2995,4.60003,2470.404,2021-7-23T04:22:56Z
2021-07-23T02:24:43Z,42.805,6.029,13.2995,4.60007,2470.39,2021-7-23T04:25:59Z
2021-07-23T02:27:46Z,42.805,6.029,13.2995,4.60003,2470.404,2021-7-23T04:29:02Z
2021-07-23T02:30:49Z,42.805,6.029,13.2993,4.60004,2470.413,2021-7-23T04:32:05Z
2021-07-23T02:33:52Z,42.805,6.029,13.2997,4.60007,2470.38,2021-7-23T04:35:08Z
2021-07-23T02:36:55Z,42.805,6.029,13.2997,4.60003,2470.427,2021-7-23T04:38:12Z
2021-07-23T02:39:58Z,42.805,6.029,13.2997,4.60009,2470.39,2021-7-23T04:41:15Z
2021-07-23T02:43:01Z,42.805,6.029,13.2995,4.60005,2470.404,2021-7-23T04:44:18Z
2021-07-23T02:46:04Z,42.805,6.029,13.3004,4.60006,2470.427,2021-7-23T04:47:21Z
2021-07-23T02:49:07Z,42.805,6.029,13.2996,4.60005,2470.39,2021-7-23T04:50:24Z
2021-07-23T02:52:11Z,42.805,6.029,13.2992,4.60003,2470.437,2021-7-23T04:53:27Z
2021-07-23T02:55:14Z,42.805,6.029,13.2993,4.60014,2470.413,2021-7-23T04:56:30Z
2021-07-23T02:58:17Z,42.805,6.029,13.2997,4.60009,2470.39,2021-7-23T04:59:33Z
2021-07-23T03:01:20Z,42.805,6.029,13.2995,4.60009,2470.437,2021-7-23T05:02:37Z
2021-07-23T03:04:23Z,42.805,6.029,13.2997,4.60004,2470.413,2021-7-23T05:05:40Z
2021-07-23T03:07:26Z,42.805,6.029,13.2994,4.60003,2470.45,2021-7-23T05:08:43Z
2021-07-23T03:10:29Z,42.805,6.029,13.2992,4.60003,2470.427,2021-7-23T05:11:46Z
2021-07-23T03:13:32Z,42.805,6.029,13.3004,4.60006,2470.427,2021-7-23T05:14:49Z
2021-07-23T03:16:36Z,42.805,6.029,13.2999,4.60010,2470.413,2021-7-23T05:17:52Z
2021-07-23T03:19:39Z,42.805,6.029,13.3000,4.60009,2470.45,2021-7-23T05:20:55Z
2021-07-23T03:22:42Z,42.805,6.029,13.2999,4.60007,2470.437,2021-7-23T05:23:58Z
2021-07-23T03:25:45Z,42.805,6.029,13.3005,4.60005,2470.45,2021-7-23T05:27:02Z
2021-07-23T03:28:48Z,42.805,6.029,13.2998,4.60005,2470.413,2021-7-23T05:30:05Z
2021-07-23T03:31:51Z,42.805,6.029,13.2999,4.60007,2470.437,2021-7-23T05:33:08Z
2021-07-23T03:34:54Z,42.805,6.029,13.2998,4.60006,2470.46,2021-7-23T05:36:11Z
2021-07-23T03:37:57Z,42.805,6.029,13.2999,4.60008,2470.437,2021-7-23T05:39:14Z
2021-07-23T03:41:01Z,42.805,6.029,13.2995,4.60015,2470.437,2021-7-23T05:42:17Z
2021-07-23T03:44:04Z,42.805,6.029,13.2998,4.60008,2470.437,2021-7-23T05:45:20Z
2021-07-23T03:47:07Z,42.805,6.029,13.2996,4.60009,2470.437,2021-7-23T05:48:23Z
2021-07-23T03:50:10Z,42.805,6.029,13.2999,4.60006,2470.437,2021-7-23T05:51:26Z
2021-07-23T03:53:13Z,42.805,6.029,13.2998,4.60005,2470.46,2021-7-23T05:54:30Z
2021-07-23T03:56:16Z,42.805,6.029,13.2997,4.60009,2470.45,2021-7-23T05:57:33Z
2021-07-23T03:59:19Z,42.805,6.029,13.3004,4.60007,2470.437,2021-7-23T06:00:36Z
2021-07-23T04:02:22Z,42.805,6.029,13.2995,4.60010,2470.437,2021-7-23T06:03:39Z
2021-07-23T04:05:26Z,42.805,6.029,13.2998,4.60014,2470.46,2021-7-23T06:06:42Z
2021-07-23T04:08:29Z,42.805,6.029,13.3003,4.60007,2470.437,2021-7-23T06:09:45Z
2021-07-23T04:11:32Z,42.805,6.029,13.2999,4.60008,2470.474,2021-7-23T06:12:48Z
2021-07-23T04:14:35Z,42.805,6.029,13.3003,4.60007,2470.46,2021-7-23T06:15:51Z
2021-07-23T04:17:38Z,42.805,6.029,13.2997,4.60016,2470.483,2021-7-23T06:18:55Z
2021-07-23T04:20:41Z,42.805,6.029,13.2997,4.60010,2470.46,2021-7-23T06:21:58Z
2021-07-23T04:23:44Z,42.805,6.029,13.2995,4.60008,2470.437,2021-7-23T06:25:01Z
2021-07-23T04:26:47Z,42.805,6.029,13.2998,4.60006,2470.507,2021-7-23T06:28:04Z
2021-07-23T04:29:51Z,42.805,6.029,13.3000,4.60011,2470.497,2021-7-23T06:31:07Z
2021-07-23T04:32:54Z,42.805,6.029,13.3005,4.60005,2470.437,2021-7-23T06:34:10Z
2021-07-23T04:35:57Z,42.805,6.029,13.3003,4.60006,2470.46,2021-7-23T06:37:13Z
2021-07-23T04:39:00Z,42.805,6.029,13.3000,4.60004,2470.507,2021-7-23T06:40:16Z
2021-07-23T04:42:03Z,42.805,6.029,13.2996,4.60006,2470.53,2021-7-23T06:43:20Z
2021-07-23T04:45:06Z,42.805,6.029,13.2998,4.60005,2470.52,2021-7-23T06:46:23Z
2021-07-23T04:48:09Z,42.805,6.029,13.2996,4.60008,2470.52,2021-7-23T06:49:26Z
2021-07-23T04:51:12Z,42.805,6.029,13.2994,4.60005,2470.52,2021-7-23T06:52:29Z
2021-07-23T04:54:16Z,42.805,6.029,13.2996,4.60004,2470.52,2021-7-23T06:55:32Z
2021-07-23T04:57:19Z,42.805,6.029,13.3000,4.60006,2470.507,2021-7-23T06:58:35Z
2021-07-23T05:00:22Z,42.805,6.029,13.2998,4.60007,2470.53,2021-7-23T07:01:38Z
2021-07-23T05:03:25Z,42.805,6.029,13.3000,4.60010,2470.52,2021-7-23T07:04:41Z
2021-07-23T05:06:28Z,42.805,6.029,13.2997,4.60007,2470.52,2021-7-23T07:07:45Z
2021-07-23T05:09:31Z,42.805,6.029,13.2997,4.60005,2470.52,2021-7-23T07:10:48Z
2021-07-23T05:12:34Z,42.805,6.029,13.2995,4.60006,2470.497,2021-7-23T07:13:51Z
2021-07-23T05:15:37Z,42.805,6.029,13.2995,4.60007,2470.507,2021-7-23T07:16:54Z
2021-07-23T05:18:41Z,42.805,6.029,13.2994,4.60020,2470.497,2021-7-23T07:19:57Z
2021-07-23T05:21:44Z,42.805,6.029,13.2995,4.60006,2470.497,2021-7-23T07:23:00Z
2021-07-23T05:24:47Z,42.805,6.029,13.2996,4.60007,2470.507,2021-7-23T07:26:03Z
2021-07-23T05:27:50Z,42.805,6.029,13.2996,4.60007,2470.507,2021-7-23T07:29:06Z
2021-07-23T05:30:53Z,42.805,6.029,13.2996,4.60009,2470.497,2021-7-23T07:32:10Z
2021-07-23T05:33:56Z,42.805,6.029,13.3000,4.60006,2470.52,2021-7-23T07:35:13Z
2021-07-23T05:36:59Z,42.805,6.029,13.2998,4.60006,2470.52,2021-7-23T07:38:16Z
2021-07-23T05:40:02Z,42.805,6.029,13.2997,4.60009,2470.483,2021-7-23T07:41:19Z
2021-07-23T05:43:06Z,42.805,6.029,13.2996,4.60014,2470.507,2021-7-23T07:44:22Z
2021-07-23T05:46:09Z,42.805,6.029,13.3004,4.60005,2470.544,2021-7-23T07:47:25Z
2021-07-23T05:49:12Z,42.805,6.029,13.2995,4.60003,2470.507,2021-7-23T07:50:28Z
2021-07-23T05:52:15Z,42.805,6.029,13.2996,4.60003,2470.53,2021-7-23T07:53:31Z
2021-07-23T05:55:18Z,42.805,6.029,13.2997,4.60005,2470.46,2021-7-23T07:56:35Z
2021-07-23T05:58:21Z,42.805,6.029,13.2998,4.60007,2470.52,2021-7-23T07:59:38Z
2021-07-23T06:01:24Z,42.805,6.029,13.3000,4.60011,2470.52,2021-7-23T08:02:41Z
2021-07-23T06:04:27Z,42.805,6.029,13.2998,4.60012,2470.52,2021-7-23T08:05:44Z
2021-07-23T06:07:30Z,42.805,6.029,13.2999,4.60004,2470.497,2021-7-23T08:08:47Z
2021-07-23T06:10:34Z,42.805,6.029,13.2993,4.60004,2470.52,2021-7-23T08:11:50Z
2021-07-23T06:13:37Z,42.805,6.029,13.2995,4.60006,2470.507,2021-7-23T08:14:53Z
2021-07-23T06:16:40Z,42.805,6.029,13.2996,4.60006,2470.483,2021-7-23T08:17:56Z
2021-07-23T06:19:43Z,42.805,6.029,13.2999,4.60009,2470.483,2021-7-23T08:21:00Z
2021-07-23T06:22:46Z,42.805,6.029,13.2996,4.60006,2470.52,2021-7-23T08:24:03Z
2021-07-23T06:25:49Z,42.805,6.029,13.3005,4.60009,2470.497,2021-7-23T08:27:06Z
2021-07-23T06:28:52Z,42.805,6.029,13.2993,4.60009,2470.507,2021-7-23T08:30:09Z
2021-07-23T06:31:55Z,42.805,6.029,13.3000,4.60012,2470.507,2021-7-23T08:33:12Z
2021-07-23T06:34:59Z,42.805,6.029,13.2999,4.60011,2470.544,2021-7-23T08:36:15Z
2021-07-23T06:38:02Z,42.805,6.029,13.2997,4.60009,2470.497,2021-7-23T08:39:18Z
2021-07-23T06:41:05Z,42.805,6.029,13.2999,4.60006,2470.52,2021-7-23T08:42:21Z
2021-07-23T06:44:08Z,42.805,6.029,13.2998,4.60008,2470.52,2021-7-23T08:45:25Z
2021-07-23T06:47:11Z,42.805,6.029,13.3001,4.60006,2470.497,2021-7-23T08:48:28Z
2021-07-23T06:50:14Z,42.805,6.029,13.2995,4.60012,2470.53,2021-7-23T08:51:31Z
2021-07-23T06:53:17Z,42.805,6.029,13.3000,4.60016,2470.507,2021-7-23T08:54:34Z
2021-07-23T06:56:20Z,42.805,6.029,13.3003,4.60007,2470.497,2021-7-23T08:57:37Z
2021-07-23T06:59:24Z,42.805,6.029,13.2996,4.60007,2470.544,2021-7-23T09:00:40Z
2021-07-23T07:02:27Z,42.805,6.029,13.2998,4.60020,2470.52,2021-7-23T09:03:43Z
2021-07-23T07:05:30Z,42.805,6.029,13.2999,4.60012,2470.507,2021-7-23T09:06:46Z
2021-07-23T07:08:33Z,42.805,6.029,13.2996,4.60009,2470.52,2021-7-23T09:09:50Z
2021-07-23T07:11:36Z,42.805,6.029,13.3002,4.60005,2470.483,2021-7-23T09:12:53Z
2021-07-23T07:14:39Z,42.805,6.029,13.3000,4.60009,2470.497,2021-7-23T09:15:56Z
2021-07-23T07:17:42Z,42.805,6.029,13.2996,4.60007,2470.483,2021-7-23T09:18:59Z
2021-07-23T07:20:45Z,42.805,6.029,13.2996,4.60007,2470.52,2021-7-23T09:22:02Z
2021-07-23T07:23:49Z,42.805,6.029,13.2996,4.60008,2470.497,2021-7-23T09:25:05Z
2021-07-23T07:26:52Z,42.805,6.029,13.2995,4.60007,2470.52,2021-7-23T09:28:08Z
2021-07-23T07:29:55Z,42.805,6.029,13.2996,4.60010,2470.46,2021-7-23T09:31:11Z
2021-07-23T07:32:58Z,42.805,6.029,13.2998,4.60013,2470.507,2021-7-23T09:34:15Z
2021-07-23T07:36:01Z,42.805,6.029,13.3000,4.60009,2470.497,2021-7-23T09:37:18Z
2021-07-23T07:39:04Z,42.805,6.029,13.2995,4.60013,2470.483,2021-7-23T09:40:21Z
2021-07-23T07:42:07Z,42.805,6.029,13.2996,4.60012,2470.497,2021-7-23T09:43:24Z
2021-07-23T07:45:10Z,42.805,6.029,13.2996,4.60008,2470.483,2021-7-23T09:46:27Z
2021-07-23T07:48:14Z,42.805,6.029,13.2998,4.60006,2470.483,2021-7-23T09:49:30Z
2021-07-23T07:51:17Z,42.805,6.029,13.2995,4.60007,2470.483,2021-7-23T09:52:33Z
2021-07-23T07:54:20Z,42.805,6.029,13.2995,4.60007,2470.483,2021-7-23T09:55:36Z
2021-07-23T07:57:23Z,42.805,6.029,13.2994,4.60009,2470.497,2021-7-23T09:58:40Z
2021-07-23T08:00:26Z,42.805,6.029,13.2994,4.60009,2470.483,2021-7-23T10:01:43Z
2021-07-23T08:03:29Z,42.805,6.029,13.2994,4.60008,2470.497,2021-7-23T10:04:46Z
2021-07-23T08:06:32Z,42.805,6.029,13.2998,4.60008,2470.497,2021-7-23T10:07:49Z
2021-07-23T08:09:35Z,42.805,6.029,13.2994,4.60008,2470.483,2021-7-23T10:10:52Z
2021-07-23T08:12:39Z,42.805,6.029,13.2994,4.60007,2470.46,2021-7-23T10:13:55Z
2021-07-23T08:15:42Z,42.805,6.029,13.2996,4.60007,2470.474,2021-7-23T10:16:58Z
2021-07-23T08:18:45Z,42.805,6.029,13.2992,4.60005,2470.437,2021-7-23T10:20:01Z
2021-07-23T08:21:48Z,42.805,6.029,13.2996,4.60013,2470.474,2021-7-23T10:23:05Z
2021-07-23T08:24:51Z,42.805,6.029,13.2995,4.60011,2470.46,2021-7-23T10:26:08Z
2021-07-23T08:27:54Z,42.805,6.029,13.2991,4.60009,2470.427,2021-7-23T10:29:11Z
2021-07-23T08:30:57Z,42.805,6.029,13.2996,4.60009,2470.45,2021-7-23T10:32:14Z
2021-07-23T08:34:00Z,42.805,6.029,13.2992,4.60008,2470.474,2021-7-23T10:35:17Z
2021-07-23T08:37:04Z,42.805,6.029,13.2996,4.60011,2470.45,2021-7-23T10:38:20Z
2021-07-23T08:40:07Z,42.805,6.029,13.2996,4.60007,2470.45,2021-7-23T10:41:23Z
2021-07-23T08:43:10Z,42.805,6.029,13.2998,4.60006,2470.437,2021-7-23T10:44:26Z
2021-07-23T08:46:13Z,42.805,6.029,13.2996,4.60009,2470.437,2021-7-23T10:47:30Z
2021-07-23T08:49:16Z,42.805,6.029,13.2995,4.60014,2470.437,2021-7-23T10:50:33Z
2021-07-23T08:52:19Z,42.805,6.029,13.2998,4.60007,2470.46,2021-7-23T10:53:36Z
2021-07-23T08:55:22Z,42.805,6.029,13.2996,4.60015,2470.437,2021-7-23T10:56:39Z
2021-07-23T08:58:25Z,42.805,6.029,13.2995,4.60011,2470.437,2021-7-23T10:59:42Z
2021-07-23T09:01:29Z,42.805,6.029,13.2996,4.60006,2470.437,2021-7-23T11:02:45Z
2021-07-23T09:04:32Z,42.805,6.029,13.2996,4.60007,2470.45,2021-7-23T11:05:48Z
2021-07-23T09:07:35Z,42.805,6.029,13.2995,4.60008,2470.427,2021-7-23T11:08:51Z
2021-07-23T09:10:38Z,42.805,6.029,13.2995,4.60010,2470.437,2021-7-23T11:11:55Z
2021-07-23T09:13:41Z,42.805,6.029,13.2996,4.60012,2470.45,2021-7-23T11:14:58Z
2021-07-23T09:16:44Z,42.805,6.029,13.2996,4.60010,2470.427,2021-7-23T11:18:01Z
2021-07-23T09:19:47Z,42.805,6.029,13.2998,4.60006,2470.413,2021-7-23T11:21:04Z
2021-07-23T09:22:51Z,42.805,6.029,13.2997,4.60008,2470.404,2021-7-23T11:24:07Z
2021-07-23T09:25:54Z,42.805,6.029,13.2993,4.60007,2470.45,2021-7-23T11:27:10Z
2021-07-23T09:28:57Z,42.805,6.029,13.2996,4.60011,2470.413,2021-7-23T11:30:13Z
2021-07-23T09:32:00Z,42.805,6.029,13.2995,4.60011,2470.413,2021-7-23T11:33:16Z
2021-07-23T09:35:03Z,42.805,6.029,13.3001,4.60011,2470.437,2021-7-23T11:36:20Z
2021-07-23T09:38:06Z,42.805,6.029,13.2995,4.60019,2470.413,2021-7-23T11:39:23Z
2021-07-23T09:41:09Z,42.805,6.029,13.2996,4.60005,2470.423,2021-7-23T11:42:26Z
2021-07-23T09:44:12Z,42.805,6.029,13.2996,4.60006,2470.413,2021-7-23T11:45:29Z
2021-07-23T09:47:16Z,42.805,6.029,13.2998,4.60009,2470.39,2021-7-23T11:48:32Z
2021-07-23T09:50:19Z,42.805,6.029,13.3002,4.60006,2470.427,2021-7-23T11:51:35Z
2021-07-23T09:53:22Z,42.805,6.029,13.3007,4.60006,2470.413,2021-7-23T11:54:38Z
2021-07-23T09:56:25Z,42.805,6.029,13.2998,4.60007,2470.404,2021-7-23T11:57:42Z
2021-07-23T09:59:28Z,42.805,6.029,13.3005,4.60006,2470.404,2021-7-23T12:00:45Z
2021-07-23T10:02:31Z,42.805,6.029,13.2998,4.60006,2470.404,2021-7-23T12:03:48Z
2021-07-23T10:05:34Z,42.805,6.029,13.2998,4.60019,2470.38,2021-7-23T12:06:51Z
2021-07-23T10:08:37Z,42.805,6.029,13.2998,4.60007,2470.404,2021-7-23T12:09:54Z
2021-07-23T10:11:41Z,42.805,6.029,13.3001,4.60018,2470.366,2021-7-23T12:12:57Z
2021-07-23T10:14:44Z,42.805,6.029,13.2999,4.60011,2470.366,2021-7-23T12:16:00Z
2021-07-23T10:17:47Z,42.805,6.029,13.3002,4.60006,2470.39,2021-7-23T12:19:03Z
2021-07-23T10:20:50Z,42.805,6.029,13.2996,4.60006,2470.38,2021-7-23T12:22:07Z
2021-07-23T10:23:53Z,42.805,6.029,13.3000,4.60004,2470.38,2021-7-23T12:25:10Z
2021-07-23T10:26:56Z,42.805,6.029,13.2997,4.60009,2470.366,2021-7-23T12:28:13Z
2021-07-23T10:29:59Z,42.805,6.029,13.3003,4.60010,2470.366,2021-7-23T12:31:16Z
2021-07-23T10:33:02Z,42.805,6.029,13.2994,4.60016,2470.357,2021-7-23T12:34:19Z
2021-07-23T10:36:06Z,42.805,6.029,13.3000,4.60016,2470.366,2021-7-23T12:37:22Z
2021-07-23T10:39:09Z,42.805,6.029,13.3000,4.60009,2470.366,2021-7-23T12:40:25Z
2021-07-23T10:42:12Z,42.805,6.029,13.3000,4.60006,2470.38,2021-7-23T12:43:28Z
2021-07-23T10:45:15Z,42.805,6.029,13.2993,4.60008,2470.39,2021-7-23T12:46:32Z
2021-07-23T10:48:18Z,42.805,6.029,13.2996,4.60011,2470.357,2021-7-23T12:49:35Z
2021-07-23T10:51:21Z,42.805,6.029,13.3001,4.60007,2470.357,2021-7-23T12:52:38Z
2021-07-23T10:54:24Z,42.805,6.029,13.3002,4.60008,2470.366,2021-7-23T12:55:41Z
2021-07-23T10:57:28Z,42.805,6.029,13.2998,4.60005,2470.357,2021-7-23T12:58:44Z
2021-07-23T11:00:31Z,42.805,6.029,13.2998,4.60007,2470.366,2021-7-23T13:01:47Z
2021-07-23T11:03:34Z,42.805,6.029,13.2995,4.60006,2470.343,2021-7-23T13:04:50Z
2021-07-23T11:06:37Z,42.805,6.029,13.3002,4.60013,2470.343,2021-7-23T13:07:53Z
2021-07-23T11:09:40Z,42.805,6.029,13.2996,4.60007,2470.38,2021-7-23T13:10:57Z
2021-07-23T11:12:43Z,42.805,6.029,13.3002,4.60010,2470.38,2021-7-23T13:14:00Z
2021-07-23T11:15:46Z,42.805,6.029,13.2997,4.60006,2470.297,2021-7-23T13:17:03Z
2021-07-23T11:18:49Z,42.805,6.029,13.2998,4.60007,2470.297,2021-7-23T13:20:06Z
2021-07-23T11:21:53Z,42.805,6.029,13.2996,4.60009,2470.343,2021-7-23T13:23:09Z
2021-07-23T11:24:56Z,42.805,6.029,13.2997,4.60006,2470.32,2021-7-23T13:26:12Z
2021-07-23T11:27:59Z,42.805,6.029,13.2996,4.60007,2470.357,2021-7-23T13:29:15Z
2021-07-23T11:31:02Z,42.805,6.029,13.2993,4.60012,2470.334,2021-7-23T13:32:18Z
2021-07-23T11:34:05Z,42.805,6.029,13.2997,4.60014,2470.334,2021-7-23T13:35:22Z
2021-07-23T11:37:08Z,42.805,6.029,13.2996,4.60003,2470.343,2021-7-23T13:38:25Z
2021-07-23T11:40:11Z,42.805,6.029,13.2992,4.60009,2470.32,2021-7-23T13:41:28Z
2021-07-23T11:43:14Z,42.805,6.029,13.2996,4.60003,2470.32,2021-7-23T13:44:31Z
2021-07-23T11:46:18Z,42.805,6.029,13.2991,4.60004,2470.32,2021-7-23T13:47:34Z
2021-07-23T11:49:21Z,42.805,6.029,13.2993,4.60002,2470.366,2021-7-23T13:50:37Z
2021-07-23T11:52:24Z,42.805,6.029,13.2997,4.60003,2470.297,2021-7-23T13:53:40Z
2021-07-23T11:55:27Z,42.805,6.029,13.2994,4.60004,2470.31,2021-7-23T13:56:44Z
2021-07-23T11:58:30Z,42.805,6.029,13.2995,4.60003,2470.297,2021-7-23T13:59:47Z
2021-07-23T12:01:33Z,42.805,6.029,13.2993,4.60005,2470.31,2021-7-23T14:02:50Z
2021-07-23T12:04:36Z,42.805,6.029,13.2999,4.60005,2470.357,2021-7-23T14:05:53Z
2021-07-23T12:07:39Z,42.805,6.029,13.2992,4.60006,2470.32,2021-7-23T14:08:56Z
2021-07-23T12:10:43Z,42.805,6.029,13.2993,4.60004,2470.334,2021-7-23T14:11:59Z
2021-07-23T12:13:46Z,42.805,6.029,13.2994,4.60006,2470.334,2021-7-23T14:15:02Z
2021-07-23T12:16:49Z,42.805,6.029,13.2992,4.60003,2470.32,2021-7-23T14:18:05Z
2021-07-23T12:19:52Z,42.805,6.029,13.2993,4.60005,2470.297,2021-7-23T14:21:09Z
2021-07-23T12:22:55Z,42.805,6.029,13.2997,4.60003,2470.32,2021-7-23T14:24:12Z
2021-07-23T12:25:58Z,42.805,6.029,13.2991,4.60007,2470.32,2021-7-23T14:27:15Z
2021-07-23T12:29:01Z,42.805,6.029,13.2990,4.60009,2470.297,2021-7-23T14:30:18Z
2021-07-23T12:32:04Z,42.805,6.029,13.2996,4.60004,2470.306,2021-7-23T14:33:21Z
2021-07-23T12:35:08Z,42.805,6.029,13.2993,4.60003,2470.343,2021-7-23T14:36:24Z
2021-07-23T12:38:11Z,42.805,6.029,13.2997,4.60004,2470.31,2021-7-23T14:39:27Z
2021-07-23T12:41:14Z,42.805,6.029,13.2998,4.60004,2470.297,2021-7-23T14:42:30Z
2021-07-23T12:44:17Z,42.805,6.029,13.2995,4.60004,2470.297,2021-7-23T14:45:34Z
2021-07-23T12:47:20Z,42.805,6.029,13.2995,4.60009,2470.31,2021-7-23T14:48:37Z
2021-07-23T12:50:23Z,42.805,6.029,13.2991,4.60003,2470.334,2021-7-23T14:51:40Z
2021-07-23T12:53:26Z,42.805,6.029,13.2997,4.60003,2470.297,2021-7-23T14:54:43Z
2021-07-23T12:56:29Z,42.805,6.029,13.2997,4.60006,2470.334,2021-7-23T14:57:46Z
2021-07-23T12:59:33Z,42.805,6.029,13.2998,4.60003,2470.31,2021-7-23T15:00:49Z
2021-07-23T13:02:36Z,42.805,6.029,13.2993,4.60005,2470.32,2021-7-23T15:03:52Z
2021-07-23T13:05:39Z,42.805,6.029,13.2993,4.60009,2470.31,2021-7-23T15:06:55Z
2021-07-23T13:08:42Z,42.805,6.029,13.2998,4.60006,2470.297,2021-7-23T15:09:59Z
2021-07-23T13:11:45Z,42.805,6.029,13.2993,4.60003,2470.297,2021-7-23T15:13:02Z
2021-07-23T13:14:48Z,42.805,6.029,13.2997,4.60003,2470.334,2021-7-23T15:16:05Z
2021-07-23T13:17:51Z,42.805,6.029,13.2993,4.60003,2470.32,2021-7-23T15:19:08Z
2021-07-23T13:20:54Z,42.805,6.029,13.2995,4.60003,2470.334,2021-7-23T15:22:11Z
2021-07-23T13:23:58Z,42.805,6.029,13.2998,4.60003,2470.32,2021-7-23T15:25:14Z
2021-07-23T13:27:01Z,42.805,6.029,13.2998,4.60003,2470.297,2021-7-23T15:28:17Z
2021-07-23T13:30:04Z,42.805,6.029,13.2995,4.60004,2470.273,2021-7-23T15:31:21Z
2021-07-23T13:33:07Z,42.805,6.029,13.2995,4.60003,2470.297,2021-7-23T15:34:24Z
2021-07-23T13:36:10Z,42.805,6.029,13.2994,4.60003,2470.334,2021-7-23T15:37:27Z
2021-07-23T13:39:13Z,42.805,6.029,13.2991,4.60004,2470.297,2021-7-23T15:40:30Z
2021-07-23T13:42:16Z,42.805,6.029,13.2998,4.60003,2470.32,2021-7-23T15:43:33Z
2021-07-23T13:45:20Z,42.805,6.029,13.2993,4.60004,2470.334,2021-7-23T15:46:36Z
2021-07-23T13:48:23Z,42.805,6.029,13.2991,4.60005,2470.32,2021-7-23T15:49:39Z
2021-07-23T13:51:26Z,42.805,6.029,13.2996,4.60005,2470.334,2021-7-23T15:52:42Z
2021-07-23T13:54:29Z,42.805,6.029,13.2995,4.60016,2470.31,2021-7-23T15:55:46Z
2021-07-23T13:57:32Z,42.805,6.029,13.2994,4.60007,2470.297,2021-7-23T15:58:49Z
2021-07-23T14:00:35Z,42.805,6.029,13.2993,4.60011,2470.297,2021-7-23T16:01:52Z
2021-07-23T14:03:38Z,42.805,6.029,13.2996,4.60005,2470.32,2021-7-23T16:04:55Z
2021-07-23T14:06:41Z,42.805,6.029,13.2990,4.60007,2470.32,2021-7-23T16:07:58Z
2021-07-23T14:09:45Z,42.805,6.029,13.2993,4.60009,2470.357,2021-7-23T16:11:01Z
2021-07-23T14:12:48Z,42.805,6.029,13.2998,4.60007,2470.32,2021-7-23T16:14:04Z
2021-07-23T14:15:51Z,42.805,6.029,13.2996,4.60006,2470.357,2021-7-23T16:17:07Z
2021-07-23T14:18:54Z,42.805,6.029,13.2997,4.60006,2470.343,2021-7-23T16:20:11Z
2021-07-23T14:21:57Z,42.805,6.029,13.2998,4.60008,2470.31,2021-7-23T16:23:14Z
2021-07-23T14:25:00Z,42.805,6.029,13.2997,4.60011,2470.38,2021-7-23T16:26:17Z
2021-07-23T14:28:03Z,42.805,6.029,13.2996,4.60007,2470.343,2021-7-23T16:29:20Z
2021-07-23T14:31:06Z,42.805,6.029,13.2999,4.60011,2470.366,2021-7-23T16:32:23Z
2021-07-23T14:34:10Z,42.805,6.029,13.2993,4.60004,2470.32,2021-7-23T16:35:26Z
2021-07-23T14:37:13Z,42.805,6.029,13.2993,4.60004,2470.32,2021-7-23T16:38:29Z
2021-07-23T14:40:16Z,42.805,6.029,13.2994,4.60003,2470.343,2021-7-23T16:41:32Z
2021-07-23T14:43:19Z,42.805,6.029,13.2995,4.60003,2470.366,2021-7-23T16:44:36Z
2021-07-23T14:46:22Z,42.805,6.029,13.2995,4.60003,2470.366,2021-7-23T16:47:39Z
2021-07-23T14:49:25Z,42.805,6.029,13.2996,4.60006,2470.343,2021-7-23T16:50:42Z
2021-07-23T14:52:28Z,42.805,6.029,13.2994,4.60006,2470.343,2021-7-23T16:53:45Z
2021-07-23T14:55:31Z,42.805,6.029,13.2996,4.60006,2470.343,2021-7-23T16:56:48Z
2021-07-23T14:58:35Z,42.805,6.029,13.2993,4.60006,2470.39,2021-7-23T16:59:51Z
2021-07-23T15:01:38Z,42.805,6.029,13.2995,4.60007,2470.343,2021-7-23T17:02:54Z
2021-07-23T15:04:41Z,42.805,6.029,13.2996,4.60009,2470.366,2021-7-23T17:05:57Z
2021-07-23T15:07:44Z,42.805,6.029,13.2996,4.60007,2470.38,2021-7-23T17:09:01Z
2021-07-23T15:10:47Z,42.805,6.029,13.2996,4.60004,2470.39,2021-7-23T17:12:04Z
2021-07-23T15:13:50Z,42.805,6.029,13.2996,4.60006,2470.404,2021-7-23T17:15:07Z